Tracking 19562 objects as of 24-Mar-2019
HD Live streaming from Space Station
objects crossing your sky now

COSMOS 2330

Track COSMOS 2330 now!
10-day predictions
COSMOS 2330 is classified as:


NORAD ID: 23792
Int'l Code: 1996-009F
Perigee: 1,418.2 km
Apogee: 1,434.6 km
Inclination: 82.6 °
Period: 114.2 minutes
Semi major axis: 7797 km
RCS: 1.0721 m2 (large)
Launch date: February 19, 1996
Source: Commonwealth of Independent States (former USSR) (CIS)
Launch site: PLESETSK MISSILE AND SPACE COMPLEX (PKMTR)
aabbcc
Your satellite tracking list
Your tracking list is empty




NASA's NSSDC Master Catalog

Two Line Element Set (TLE):
1 23792U 96009F   19081.88532742  .00000016  00000-0  30189-4 0  9997
2 23792  82.5808 225.6593 0010508 289.9346  70.0612 12.60903429 62687
Source of the keplerian elements: AFSPC